Regional Weather Roundup
Issued by NWS

Home | Current Version | Previous Version | Text Only | Print | Product List | Glossary On
Versions: 1 2 3 4 5 6 7 8 9 10 11 12 13 14 15 16 17 18 19 20 21 22 23 24 25 26 27 28 29 30 31 32 33 34 35 36 37 38 39 40 41 42 43 44 45 46 47 48 49 50
000
ASUS43 KOAX 161610
RWRNE

WEATHER ROUNDUP FOR NEBRASKA
NATIONAL WEATHER SERVICE OMAHA NE
1100 AM CDT TUE SEP 16 2014

NOTES: SATELLITE DATA IS BEING USED TO AUGMENT CLOUD COVER ABOVE
       12000 FEET.
       "FAIR" INDICATES FEW OR NO CLOUDS BELOW 12,000 FEET WITH NO
       SIGNIFICANT WEATHER AND/OR OBSTRUCTIONS TO VISIBILITY.

  * THESE STATIONS DO NOT REPORT WEATHER SUCH AS RAIN...SNOW OR FOG.

NEZ001>004-019>022-054>056-161700-
NEBRASKA PANHANDLE

CITY           SKY/WX    TMP DP  RH WIND       PRES   REMARKS
SCOTTSBLUFF    SUNNY     63  52  67 NW12      30.10S
ALLIANCE       SUNNY     65  53  65 W6        30.07S
CHADRON        SUNNY     66  48  52 NW8       30.06S
KIMBALL        SUNNY     74  39  28 NW16G22   30.12R
SIDNEY         SUNNY     70  53  54 VRB7      30.10F
$$

NEZ057>060-069>072-079>082-161700-
SOUTHWEST NEBRASKA

CITY           SKY/WX    TMP DP  RH WIND       PRES   REMARKS
NORTH PLATTE   PTSUNNY   62  52  69 S9G26     30.09F
IMPERIAL       MOSUNNY   66  54  65 S15G24    30.09F
LEXINGTON      CLOUDY    55  51  85 S14       30.15F
MCCOOK         CLOUDY    62  53  72 S10       30.14F
OGALLALA       MOSUNNY   66  57  72 SW14      30.07F
$$

NEZ005>010-023>029-035>040-094-161700-
NORTH CENTRAL NEBRASKA

CITY           SKY/WX    TMP DP  RH WIND       PRES   REMARKS
VALENTINE      SUNNY     63  49  60 SW14      30.04F
AINSWORTH      SUNNY     64  51  63 S14       30.07S
BROKEN BOW     PTSUNNY   62  51  67 S16G28    30.10F
O`NEILL        SUNNY     61  50  67 S18       30.11F
ORD            SUNNY     59  49  69 S15       30.13F
THEDFORD       SUNNY     65  53  64 SW15      30.08R
$$

NEZ041-046>049-061>064-073>077-083>087-161700-
SOUTH CENTRAL NEBRASKA

CITY           SKY/WX    TMP DP  RH WIND       PRES   REMARKS
GRAND ISLAND   SUNNY     59  48  67 S14       30.19F
AURORA         SUNNY     58  46  64 S12       30.20S
HASTINGS       SUNNY     59  48  67 S10G18    30.19S
HEBRON         SUNNY     61  47  60 S7        30.21F
HOLDREGE       CLOUDY    56  49  79 S9        30.17F
KEARNEY *      MOSUNNY   57  48  72 SE12      30.18F
YORK           SUNNY     57  48  72 SW13      30.22R
$$

NEZ011>018-030>034-042>045-161700-
NORTHEAST NEBRASKA

CITY           SKY/WX    TMP DP  RH WIND       PRES   REMARKS
NORFOLK        SUNNY     59  46  62 S14G21    30.18F
ALBION         SUNNY     57  46  66 S15       30.18F
BLAIR          SUNNY     59  46  61 S12       30.21F
COLUMBUS *     SUNNY     59  46  63 S9        30.21F
FREMONT        SUNNY     60  46  59 S12       30.21F
TEKAMAH        SUNNY     60  45  57 S14       30.21F
WAYNE          SUNNY     60  47  63 S14G20    30.19F
$$

NEZ050>053-065>068-078-088>093-161700-
SOUTHEAST NEBRASKA

CITY           SKY/WX    TMP DP  RH WIND       PRES   REMARKS
LINCOLN        SUNNY     60  47  61 S12       30.22F
OMAHA EPPLEY   MOSUNNY   59  47  64 S10       30.22F
BEATRICE       SUNNY     59  49  68 S8        30.22F
FALLS CITY     SUNNY     61  50  67 VRB3      30.22F
NEBRASKA CITY  MOSUNNY   58  43  56 S8        30.23F
PLATTSMOUTH    SUNNY     59  46  62 SE8       30.22F
$$

NEZ044-045-051>053-067-161700-
OMAHA AREA

CITY           SKY/WX    TMP DP  RH WIND       PRES   REMARKS
OMAHA EPPLEY   MOSUNNY   59  47  64 S10       30.22F
BLAIR          SUNNY     59  46  61 S12       30.21F
FREMONT        SUNNY     60  46  59 S12       30.21F
MILLARD        SUNNY     60  48  65 S9        30.21F
OFFUTT AFB     SUNNY     59  56  88 S6        30.22F
PLATTSMOUTH    SUNNY     59  46  62 SE8       30.22F
WAHOO          FAIR      60  45  59 S12       30.21F
$$


USA.gov is the U.S. government's official web portal to all federal, state and local government web resources and services.